Content
SEND FEEDBACK

Daily
Averages
Monthly
Summary
Mexico

SAN MARTINIANO, QUINTANA ROO


Home > North America > Mexico > Quintana Roo
Elevation: 15 meters     Latitude: 20 47N     Longitude: 087 16W

WEATHER
 
SELECT A DAY
Number of Records: 196,766;   Date Range: 2/21/06 - 9/16/14
 
SHARE

PRINT THIS DATA

[ ← Previous Day ]
WEATHER ALMANAC - 22 JULY, 2014
[ Next Day → ]
[ °F ]   °C
Weather ElementAverageHighLow
Temperature27.4 °C35 °C (4:35 pm)23 °C (12:55 am)
Dewpoint4.1 °C26 °C (9:55 pm) (7:00 pm)
Humidity65.5 %100 % (9:55 pm)39 % (4:55 pm)
Barometer1018.3 hPa1019.6 hPa (11:15 pm)1016.9 hPa (3:55 am)
Wind Speed3.7 km/h18.5 km/h (6:15 pm)
Wind Gust25.9 km/h (6:15 pm)
Weather ElementAverage
Visibility14 km
Wind DirectionENE (79.4 °)

Weather ElementTotal
Precipitation0.76 mm
Cooling Degree Days10.7 (Base 18.3)
Growing Degree Days19 (Base 10)
Averaged from 70 records on 22 July, 2014
WEATHER CONDITIONS BREAKOUT
WIND DIRECTION BREAKOUT
WEATHER BY HOUR - 22 JULY, 2014
[ °F ]   °C
Local TimeTemperatureDewpointHumidityBarometerVisibilityWind DirectionWind SpeedGust SpeedPrecipitationEventsConditions
12:35 AM24 °C-17.8 °C1018.6 hPa16.1 kmCalmClear
12:55 AM23 °C-17.8 °C1018.3 hPa11.3 kmCalmClear
1:15 AM23 °C-17.8 °C1018.3 hPa11.3 kmCalmClear
1:35 AM23 °C-17.8 °C1017.9 hPa11.3 kmCalmClear
1:55 AM23 °C-17.8 °C1017.9 hPa11.3 kmEast (80°)5.6 km/hClear
2:15 AM23 °C-17.8 °C1017.6 hPa11.3 kmCalmClear
2:35 AM23 °C-17.8 °C1017.3 hPa11.3 kmEast (90°)5.6 km/hClear
2:55 AM23 °C-17.8 °C1017.3 hPa11.3 kmCalmClear
3:15 AM23 °C-17.8 °C1017.3 hPa11.3 kmCalmClear
3:35 AM23 °C-17.8 °C1017.3 hPa8 kmCalmHaze
3:55 AM23 °C-17.8 °C1016.9 hPa11.3 kmEast (80°)5.6 km/hClear
4:15 AM23 °C-17.8 °C1016.9 hPa11.3 kmCalmClear
4:35 AM23 °C-17.8 °C1016.9 hPa11.3 kmENE (70°)5.6 km/hClear
4:55 AM23 °C-17.8 °C1016.9 hPa11.3 kmEast (90°)7.4 km/hClear
5:15 AM24 °C-17.8 °C1016.9 hPa11.3 kmCalmClear
5:35 AM23 °C-17.8 °C1017.3 hPa11.3 kmCalmClear
5:55 AM23 °C-17.8 °C1017.3 hPa8 kmENE (70°)5.6 km/hHaze
6:15 AM23 °C-17.8 °C1017.3 hPa8 kmCalm0.25 mmHaze
6:35 AM23 °C-17.8 °C1017.6 hPa8 kmNorth0.25 mmHaze
6:55 AM23 °C-17.8 °C1018.3 hPa6.4 kmNorth0.25 mmHaze
7:15 AM24 °C-17.8 °C1018.3 hPa6.4 kmNorthHaze
7:35 AM24 °C-17.8 °C1018.3 hPa8 kmEast (80°)5.6 km/hHaze
7:55 AM25 °C-17.8 °C1018.6 hPa8 kmCalmHaze
8:15 AM25 °C-17.8 °C1018.6 hPa11.3 kmCalmMostly Cloudy
8:35 AM25 °C-17.8 °C1019 hPa11.3 kmCalmScattered Clouds
8:55 AM26 °C-17.8 °C1019 hPa16.1 kmCalmScattered Clouds
9:15 AM27 °C-17.8 °C1019 hPa16.1 kmNorthScattered Clouds
9:35 AM28 °C-17.8 °C1019 hPa16.1 kmNorthScattered Clouds
9:55 AM28 °C-17.8 °C1019 hPa16.1 kmNorthMostly Cloudy
10:15 AM28 °C25 °C84 %1019 hPa16.1 kmNorthMostly Cloudy
10:35 AM29 °C24 °C74 %1019.3 hPa16.1 kmSSW (200°)9.3 km/hMostly Cloudy
10:55 AM29 °C24 °C74 %1019.3 hPa16.1 kmCalmMostly Cloudy
11:15 AM30 °C24 °C70 %1019.3 hPa16.1 kmCalmScattered Clouds
11:35 AM30 °C24 °C70 %1019.3 hPa16.1 kmCalmScattered Clouds
11:55 AM31 °C23 °C62 %1019.3 hPa16.1 kmCalmScattered Clouds
12:15 PM31 °C23 °C62 %1019 hPa16.1 kmCalmMostly Cloudy
12:35 PM31 °C22 °C58 %1019 hPa16.1 kmCalmMostly Cloudy
1:15 PM32 °C23 °C59 %1018.6 hPa16.1 kmNorth (360°)5.6 km/hMostly Cloudy
1:35 PM33 °C22 °C52 %1019 hPa16.1 kmCalmScattered Clouds
1:55 PM32 °C22 °C55 %1018.6 hPa16.1 kmNW (320°)5.6 km/hClear
2:15 PM33 °C21 °C49 %1018.6 hPa16.1 kmCalmClear
2:35 PM34 °C22 °C49 %1018.3 hPa16.1 kmWest (280°)5.6 km/hClear
2:55 PM33 °C21 °C49 %1017.9 hPa16.1 kmCalmClear
3:15 PM34 °C21 °C46 %1017.9 hPa16.1 kmNorth (10°)7.4 km/hMostly Cloudy
3:35 PM34 °C20 °C44 %1017.6 hPa16.1 kmCalmMostly Cloudy
3:55 PM34 °C20 °C44 %1017.6 hPa16.1 kmNW (320°)5.6 km/hScattered Clouds
4:15 PM34 °C19 °C41 %1017.3 hPa16.1 kmCalmClear
4:35 PM35 °C20 °C41 %1017.3 hPa16.1 kmSW (230°)7.4 km/hScattered Clouds
4:55 PM35 °C19 °C39 %1017.6 hPa16.1 kmWSW (240°)7.4 km/hScattered Clouds
5:15 PM34 °C19 °C41 %1017.3 hPa16.1 kmSW (220°)7.4 km/hClear
5:35 PM33 °C20 °C46 %1017.3 hPa16.1 kmWSW (250°)11.1 km/hClear
5:55 PM33 °C21 °C49 %1017.3 hPa16.1 kmWNW (290°)5.6 km/hScattered Clouds
6:15 PM30 °C22 °C62 %1017.6 hPa16.1 kmNW (310°)18.5 km/h25.9 km/hMostly Cloudy
6:35 PM29 °C22 °C66 %1017.6 hPa16.1 kmNNW (330°)5.6 km/hMostly Cloudy
6:55 PM29 °C21 °C62 %1017.3 hPa16.1 kmNorth (350°)9.3 km/hScattered Clouds
7:15 PM29 °C21 °C62 %1017.6 hPa16.1 kmCalmClear
7:35 PM28 °C22 °C70 %1017.9 hPa16.1 kmEast (90°)13 km/hMostly Cloudy
7:55 PM28 °C23 °C74 %1018.3 hPa16.1 kmSE (130°)13 km/hScattered Clouds
8:15 PM27 °C23 °C79 %1018.3 hPa16.1 kmESE (120°)11.1 km/hClear
8:35 PM27 °C24 °C84 %1018.3 hPa16.1 kmESE (120°)13 km/hClear
8:55 PM27 °C24 °C84 %1018.3 hPa16.1 kmSE (140°)5.6 km/hClear
9:15 PM26 °C25 °C94 %1018.3 hPa16.1 kmSSE (150°)5.6 km/hClear
9:35 PM26 °C25 °C94 %1018.6 hPa16.1 kmSSE (150°)5.6 km/hClear
9:55 PM26 °C26 °C100 %1018.6 hPa16.1 kmSouth (190°)5.6 km/hClear
10:15 PM26 °C26 °C100 %1019 hPa16.1 kmCalmClear
10:35 PM26 °C26 °C100 %1019.3 hPa16.1 kmCalmScattered Clouds
10:55 PM26 °C26 °C100 %1019.3 hPa16.1 kmCalmClear
11:15 PM26 °C-17.8 °C1019.6 hPa16.1 kmCalmClear
11:35 PM25 °C-17.8 °C1019.6 hPa16.1 kmEast (90°)5.6 km/hClear
11:55 PM25 °C-17.8 °C1019.6 hPa16.1 kmESE (110°)5.6 km/hClear
Hourly data recorded from KPCM, located 0 kilometers away from San Martiniano, Quintana Roo







STORIES FROM OUR PARTNERS